Miscellaneous Local Product
Issued by NWS North Platte, NE

Home | Current Version | Previous Version | Graphics & Text | Print | Product List | Glossary On
Versions: 1 2 3 4 5 6 7 8 9 10 11 12 13 14 15 16 17 18 19 20 21 22 23 24 25 26 27 28 29 30 31 32 33 34 35 36 37 38 39 40 41 42 43 44 45 46 47 48 49 50
000
AXUS43 KLBF 230310
MISLBF


WESTERN AND NORTH CENTRAL NEBRASKA HOURLY WEATHER ROUNDUP
NATIONAL WEATHER SERVICE NORTH PLATTE NE
1000 PM CDT FRI MAY 22 2015

***STATIONS NOT REPORTING VARIABLES SUCH AS SKY/WEATHER OR
PRESSURE ARE PROVIDED BY THE NEBRASKA DEPARTMENT OF
ROADS...RAWS...AND APRS NETWORKS...AND ARE NOT UNDER
NATIONAL WEATHER SERVICE QUALITY CONTROL***

...OBSERVATIONS IN AND NEAR THE EASTERN PANHANDLE OF NEBRASKA...

CITY           SKY/WX    TMP DP  RH WIND       PRES   REMARKS
PINE RIDGE     CLOUDY    47  42  83 SE9       30.10S
CHADRON        CLOUDY    49  44  83 E5        30.08S
ALLIANCE       CLOUDY    46  44  93 SE15      30.08R
SIDNEY         CLOUDY    45  44  97 E10       30.07R FOG
WHITECLAY        N/A     44  41  91 SE12        N/A
BIG SPRINGS      N/A     48  47  97 E9          N/A
$$

...OBSERVATIONS IN NORTH CENTRAL NEBRASKA...

CITY           SKY/WX    TMP DP  RH WIND       PRES   REMARKS
VALENTINE      CLOUDY    49  43  80 SE10      30.15R
THEDFORD       RAIN      48  47  94 SE10      30.14R
AINSWORTH      DRIZZLE   47  46  94 SE6       30.15S
O`NEILL        DRIZZLE   51  49  94 SE7       30.18R
ORD            LGT RAIN  49  48  97 E7        30.15S FOG
BROKEN BOW     LGT RAIN  50  48  93 E10       30.13S FOG
BROWNLEE         N/A     50  47  92 SE14        N/A
VALENTINE NWR    N/A     46  46  99 SE8         N/A
SPRINGVIEW       N/A     48  45  90 E3          N/A
BREWSTER         N/A     47  47  98 SE8         N/A
ROSE             N/A     47  47  99 E10         N/A
NEWPORT          N/A     47  47  99 E3          N/A
SARGENT          N/A     48  47  96 E3          N/A
COMSTOCK         N/A     51  50  99 E7          N/A
EWING            N/A     51  49  92 CALM        N/A
$$

...OBSERVATIONS IN SOUTHWEST NEBRASKA AND FAR NORTHEAST COLORADO...

CITY           SKY/WX    TMP DP  RH WIND       PRES   REMARKS
WRAY           CLOUDY   N/A N/A N/A E12       30.02R
IMPERIAL       CLOUDY    49  48  97 SE16      30.04S
OGALLALA       LGT RAIN  47  47  99 E12       30.07S
NORTH PLATTE   LGT RAIN  49  47  93 E13       30.09F
MCCOOK         CLOUDY    52  51  97 E13       30.07S FOG
LEXINGTON      CLOUDY    52  51  97 SE12      30.11S FOG
GOTHENBURG       N/A     49  47  94 E9          N/A
CALLAWAY         N/A     49  48  97 E12         N/A
$$

...NORTH PLATTE AREA...

CITY           SKY/WX    TMP DP  RH WIND       PRES   REMARKS
AIRPORT        LGT RAIN  49  47  93 E13       30.09F
DOWNTOWN         N/A     48  47  95 MISG        N/A
$$

...SOME WEATHER OBSERVATIONS FROM AROUND THE REGION...

CITY           SKY/WX    TMP DP  RH WIND       PRES   REMARKS
DENVER         CLOUDY    50  48  93 E5        30.03R
LARAMIE        CLOUDY    40  38  93 SE12      30.01F WCI  33
CHEYENNE       CLOUDY    46  43  89 S7        30.05R
SCOTTSBLUFF    CLOUDY    47  45  93 SE16      30.07R
RAPID CITY     CLOUDY    51  42  71 SE14      30.09R
PIERRE         MOCLDY    54  42  64 S16       30.14R
WINNER         CLOUDY    53  40  61 S13       30.16S
SIOUX FALLS    CLOUDY    59  42  53 CALM      30.19S
OMAHA          CLOUDY    61  48  62 SE7       30.19R
GRAND ISLAND   CLOUDY    54  48  80 SE12      30.15F
KANSAS CITY    CLOUDY    60  51  72 SE8       30.20S
WICHITA        CLOUDY    56  53  90 SE12      30.15S
HAYS           CLOUDY    55  48  76 SE13      30.11R
LIBERAL        CLEAR     57  52  82 S16       30.03R
GOODLAND       FOG       52  52 100 SE20      30.02S VSB 1/2
$$



USA.gov is the U.S. government's official web portal to all federal, state and local government web resources and services.